Location: *
(37.5724°S, 58.0067°E)
Time: 00:43:28
(UTC+00:00)

SeaSat 1 - Visible Passes

Search period start: 24 January 2021 00:00
Search period end: 03 February 2021 00:00
Orbit: 745 x 747 km, 108.0° (Epoch: 23 January)

Date Brightness Start Highest point End Pass type
(mag) Time Alt. Az. Time Alt. Az. Time Alt. Az.
24 Jan 4.9 23:00:38 10° ESE 23:03:31 15° ENE 23:06:25 10° NE visible
25 Jan 2.6 00:36:25 10° SSE 00:41:20 61° WSW 00:46:12 10° NW visible
25 Jan 3.3 23:54:21 10° SE 23:59:10 48° ENE 00:03:55 10° N visible
26 Jan 4.8 23:13:29 10° ESE 23:16:42 17° ENE 23:19:53 10° NE visible
28 Jan 3.1 00:07:26 10° SE 00:12:18 53° ENE 00:17:08 10° N visible
28 Jan 4.7 23:26:24 10° ESE 23:29:52 19° ENE 23:33:19 10° NNE visible
30 Jan 3.0 00:20:32 10° SSE 00:25:27 59° ENE 00:30:19 10° NNW visible
30 Jan 4.6 23:39:21 10° ESE 23:43:03 21° ENE 23:46:43 10° NNE visible
01 Feb 2.9 00:33:38 10° SSE 00:38:36 65° ENE 00:43:29 10° NNW visible
01 Feb 4.5 23:52:19 10° SE 23:56:13 23° ENE 00:00:04 10° NNE visible
